CW1923 Weather Reports


Display with metric or nautical units.
time (UTC)temp
F
wind
direction
speed
MPH
gust
MPH
rain 1hr
in
rain 24hr
in
rain mn
in
humidity
%
barometer
mb
20260906220808 66 133 0.0 0.0 0.00 0.00 0.00 82 1019.4
20260906220308 66 133 0.0 0.0 0.00 0.00 0.00 81 1019.5
20260906215806 66 133 0.0 0.0 0.00 0.00 0.00 81 1019.5
20260906215307 66 133 0.0 0.0 0.00 0.00 0.00 81 1019.6
20260906214304 66 133 0.0 0.0 0.00 0.00 0.00 80 1019.6
20260906213806 67 133 0.0 0.0 0.00 0.00 0.00 80 1019.6
20260906213310 67 133 0.0 0.0 0.00 0.00 0.00 79 1019.8
20260906212808 67 133 0.0 0.0 0.00 0.00 0.00 79 1019.8
20260906212310 67 133 0.0 0.0 0.00 0.00 0.00 77 1019.7
20260906211808 67 133 0.0 0.0 0.00 0.00 0.00 77 1019.7
20260906210804 67 133 0.0 0.0 0.00 0.00 0.00 77 1019.8
20260906210304 68 133 0.0 0.0 0.00 0.00 0.00 75 1019.7
20260906205801 68 133 0.0 0.0 0.00 0.00 0.00 75 1019.7
20260906204733 68 133 0.0 0.0 0.00 0.00 0.00 75 1019.8
20260906204234 68 133 0.0 0.0 0.00 0.00 0.00 75 1019.7
20260906203735 68 133 0.0 0.0 0.00 0.00 0.00 74 1019.8
20260906203229 68 133 0.0 0.0 0.00 0.00 0.00 74 1019.8
20260906202726 68 133 0.0 0.0 0.00 0.00 0.00 75 1019.8
20260906202222 68 133 0.0 0.0 0.00 0.00 0.00 75 1019.8
20260906200713 69 133 0.0 0.0 0.00 0.00 0.00 74 1019.9
20260906200210 69 133 0.0 0.0 0.00 0.00 0.00 74 1020.1
20260906195705 69 133 0.0 0.0 0.00 0.00 0.00 73 1020.1
20260906195211 69 133 0.0 0.0 0.00 0.00 0.00 72 1020.2
20260906193704 70 133 0.0 0.0 0.00 0.00 0.00 71 1020.4
20260906192705 70 133 0.0 0.0 0.00 0.00 0.00 70 1020.4
20260906192209 70 133 0.0 0.0 0.00 0.00 0.00 70 1020.4
20260906191710 71 133 0.0 0.0 0.00 0.00 0.00 70 1020.5
20260906191204 71 133 0.0 0.0 0.00 0.00 0.00 69 1020.6
20260906190702 71 133 0.0 0.0 0.00 0.00 0.00 69 1020.6
20260906185649 71 133 0.0 0.0 0.00 0.00 0.00 69 1020.6
20260906185149 71 133 0.0 0.0 0.00 0.00 0.00 69 1020.6
20260906184645 71 133 0.0 0.0 0.00 0.00 0.00 68 1020.6
20260906184140 71 133 0.0 2.0 0.00 0.00 0.00 68 1020.4
20260906183644 71 134 0.0 2.0 0.00 0.00 0.00 68 1020.4
20260906183136 71 165 0.0 0.0 0.00 0.00 0.00 68 1020.5
20260906182636 72 165 0.0 0.0 0.00 0.00 0.00 68 1020.6
20260906182134 72 165 0.0 0.0 0.00 0.00 0.00 68 1020.6
20260906181630 72 165 0.0 4.0 0.00 0.00 0.00 68 1020.7
20260906181132 72 165 0.0 4.0 0.00 0.00 0.00 67 1020.7
20260906180636 73 165 0.0 4.0 0.00 0.00 0.00 67 1020.8
20260906180133 73 165 0.0 2.0 0.00 0.00 0.00 66 1020.9
20260906175636 73 165 0.0 2.0 0.00 0.00 0.00 65 1021.0
20260906175126 73 165 0.0 2.0 0.00 0.00 0.00 64 1021.1
20260906174127 73 165 0.0 2.0 0.00 0.00 0.00 64 1021.2
20260906173623 74 165 0.0 2.0 0.00 0.00 0.00 64 1021.2
20260906173106 74 165 0.0 2.0 0.00 0.00 0.00 63 1021.3
20260906172607 74 165 0.0 2.0 0.00 0.00 0.00 62 1021.4
20260906172105 75 165 0.0 2.0 0.00 0.00 0.00 62 1021.4
20260906171604 75 165 0.0 2.0 0.00 0.00 0.00 62 1021.4
20260906171105 75 165 0.0 2.0 0.00 0.00 0.00 61 1021.5
20260906170603 75 165 0.0 2.0 0.00 0.00 0.00 60 1021.5
20260906170105 76 165 0.0 4.0 0.00 0.00 0.00 59 1021.5
20260906165605 76 165 0.0 4.0 0.00 0.00 0.00 58 1021.5
20260906165106 76 165 0.0 2.0 0.00 0.00 0.00 58 1021.5
20260906164606 76 165 0.0 4.0 0.00 0.00 0.00 57 1021.5
20260906163604 77 165 2.0 5.0 0.00 0.00 0.00 56 1021.6
20260906163058 77 165 2.0 5.0 0.00 0.00 0.00 55 1021.7
20260906162556 78 165 0.0 5.0 0.00 0.00 0.00 54 1021.6
20260906161054 78 117 4.0 9.0 0.00 0.00 0.00 53 1021.7
20260906160558 78 133 4.0 9.0 0.00 0.00 0.00 52 1021.7
20260906160055 78 171 2.0 9.0 0.00 0.00 0.00 53 1021.8
20260906155555 78 152 2.0 9.0 0.00 0.00 0.00 52 1021.7
20260906155056 78 176 4.0 11.0 0.00 0.00 0.00 52 1021.8
20260906154050 78 182 2.0 7.0 0.00 0.00 0.00 52 1021.9
20260906153603 78 200 2.0 11.0 0.00 0.00 0.00 52 1021.9
20260906153046 78 185 4.0 11.0 0.00 0.00 0.00 52 1022.0
20260906152548 78 145 4.0 9.0 0.00 0.00 0.00 51 1022.0
20260906152043 78 188 4.0 11.0 0.00 0.00 0.00 51 1022.0
20260906151543 78 173 4.0 14.0 0.00 0.00 0.00 52 1022.1
20260906151044 78 112 4.0 14.0 0.00 0.00 0.00 51 1022.0
20260906150543 78 178 4.0 9.0 0.00 0.00 0.00 52 1022.1
20260906150046 78 164 2.0 9.0 0.00 0.00 0.00 51 1022.1
20260906145545 78 182 4.0 11.0 0.00 0.00 0.00 51 1022.1
20260906145044 78 188 4.0 11.0 0.00 0.00 0.00 50 1022.1
20260906144552 78 187 4.0 11.0 0.00 0.00 0.00 50 1022.3
20260906144040 78 170 4.0 9.0 0.00 0.00 0.00 50 1022.2
20260906143042 78 111 4.0 11.0 0.00 0.00 0.00 53 1022.3
20260906142534 77 146 4.0 11.0 0.00 0.00 0.00 54 1022.3
20260906142034 78 187 4.0 7.0 0.00 0.00 0.00 52 1022.4
20260906141531 77 170 4.0 7.0 0.00 0.00 0.00 53 1022.5
20260906141031 78 94 4.0 14.0 0.00 0.00 0.00 53 1022.4
20260906140534 77 162 5.0 14.0 0.00 0.00 0.00 52 1022.5
20260906140031 77 127 4.0 11.0 0.00 0.00 0.00 51 1022.6
20260906135535 78 198 4.0 9.0 0.00 0.00 0.00 53 1022.6
20260906134533 76 191 5.0 18.0 0.00 0.00 0.00 54 1022.9
20260906134024 77 107 4.0 11.0 0.00 0.00 0.00 53 1022.9
20260906133526 78 104 4.0 7.0 0.00 0.00 0.00 53 1023.0
20260906132524 77 191 4.0 11.0 0.00 0.00 0.00 55 1023.1
20260906132020 77 138 4.0 7.0 0.00 0.00 0.00 54 1023.1
20260906131521 77 122 4.0 9.0 0.00 0.00 0.00 55 1023.2
20260906131019 76 156 4.0 9.0 0.00 0.00 0.00 55 1023.3
20260906130518 76 221 2.0 7.0 0.00 0.00 0.00 55 1023.4
20260906130022 76 179 4.0 12.0 0.00 0.00 0.00 56 1023.4
20260906125514 76 183 4.0 12.0 0.00 0.00 0.00 56 1023.4
20260906124013 75 184 4.0 12.0 0.00 0.00 0.00 57 1023.6
20260906123016 76 274 4.0 9.0 0.00 0.00 0.00 55 1023.8
20260906122011 76 173 4.0 11.0 0.00 0.00 0.00 56 1023.9
20260906121511 75 186 4.0 11.0 0.00 0.00 0.00 57 1023.9
20260906120505 74 220 4.0 16.0 0.00 0.00 0.00 58 1024.0
20260906120004 74 137 4.0 12.0 0.00 0.00 0.00 59 1024.1
20260906115504 74 164 5.0 12.0 0.00 0.00 0.00 59 1024.2
20260906115003 74 157 4.0 11.0 0.00 0.00 0.00 59 1024.4
20260906114505 74 198 4.0 12.0 0.00 0.00 0.00 59 1024.3
20260906114006 74 162 4.0 12.0 0.00 0.00 0.00 60 1024.3
20260906113510 74 163 4.0 12.0 0.00 0.00 0.00 61 1024.4
20260906112508 72 170 5.0 14.0 0.00 0.00 0.00 61 1024.6
20260906112004 73 170 4.0 11.0 0.00 0.00 0.00 62 1024.6
20260906110007 73 185 4.0 11.0 0.00 0.00 0.00 64 1024.9
20260906105004 72 170 4.0 11.0 0.00 0.00 0.00 63 1024.9
20260906104504 72 170 4.0 11.0 0.00 0.00 0.00 65 1025.0
20260906104006 72 193 4.0 11.0 0.00 0.00 0.00 65 1025.0
20260906103507 71 191 4.0 11.0 0.00 0.00 0.00 67 1025.1
20260906103005 71 180 4.0 9.0 0.00 0.00 0.00 64 1025.2
20260906102503 71 110 4.0 11.0 0.00 0.00 0.00 66 1025.3
20260906102006 71 187 4.0 11.0 0.00 0.00 0.00 67 1025.3
20260906101503 71 186 2.0 11.0 0.00 0.00 0.00 66 1025.4
20260906101004 71 121 4.0 9.0 0.00 0.00 0.00 67 1025.4
20260906100504 70 162 4.0 12.0 0.00 0.00 0.00 69 1025.5
20260906100002 70 110 4.0 12.0 0.00 0.00 0.00 67 1025.4
20260906095502 70 99 4.0 9.0 0.00 0.00 0.00 68 1025.6
20260906094503 69 206 4.0 11.0 0.00 0.00 0.00 69 1025.7
20260906094005 69 170 4.0 11.0 0.00 0.00 0.00 68 1025.7
20260906093506 69 187 2.0 7.0 0.00 0.00 0.00 69 1025.8
20260906092505 69 149 4.0 9.0 0.00 0.00 0.00 70 1025.7
20260906092003 69 175 2.0 9.0 0.00 0.00 0.00 70 1025.8
20260906091504 69 178 2.0 9.0 0.00 0.00 0.00 70 1025.9
20260906090504 67 220 4.0 7.0 0.00 0.00 0.00 71 1026.0
20260906090004 67 182 2.0 7.0 0.00 0.00 0.00 71 1026.0
20260906085500 67 180 2.0 7.0 0.00 0.00 0.00 71 1026.2
20260906085002 67 177 2.0 7.0 0.00 0.00 0.00 71 1026.3
20260906084500 66 160 2.0 7.0 0.00 0.00 0.00 73 1026.3
20260906083955 66 191 2.0 7.0 0.00 0.00 0.00 73 1026.2
20260906083456 65 97 4.0 7.0 0.00 0.00 0.00 74 1026.2
20260906082955 65 178 2.0 7.0 0.00 0.00 0.00 75 1026.1
20260906082454 65 134 2.0 7.0 0.00 0.00 0.00 74 1026.1
20260906081946 65 164 4.0 5.0 0.00 0.00 0.00 75 1026.1
20260906081447 64 176 4.0 7.0 0.00 0.00 0.00 75 1026.2
20260906080945 64 233 4.0 9.0 0.00 0.00 0.00 78 1026.2
20260906080443 63 168 4.0 9.0 0.00 0.00 0.00 78 1026.1
20260906075941 63 203 2.0 5.0 0.00 0.00 0.00 79 1026.1
20260906075440 63 174 2.0 5.0 0.00 0.00 0.00 81 1026.0
20260906074942 62 172 2.0 5.0 0.00 0.00 0.00 82 1026.0
20260906074432 61 157 2.0 7.0 0.00 0.00 0.00 84 1026.1
20260906073933 60 147 2.0 7.0 0.00 0.00 0.00 84 1026.0
20260906073432 60 197 2.0 7.0 0.00 0.00 0.00 85 1026.0
20260906072932 60 205 2.0 7.0 0.00 0.00 0.00 86 1026.0
20260906072432 59 167 2.0 5.0 0.00 0.00 0.00 87 1026.0
20260906071931 58 158 2.0 5.0 0.00 0.00 0.00 89 1026.0
20260906071432 58 134 2.0 7.0 0.00 0.00 0.00 90 1026.1
20260906070934 57 132 2.0 7.0 0.00 0.00 0.00 91 1026.1
20260906070435 57 166 2.0 7.0 0.00 0.00 0.00 92 1026.2
20260906065933 56 183 2.0 7.0 0.00 0.00 0.00 93 1026.2
20260906065433 55 106 2.0 5.0 0.00 0.00 0.00 95 1026.2
20260906064435 54 3 0.0 5.0 0.00 0.00 0.00 96 1026.3
20260906063932 53 3 0.0 5.0 0.00 0.00 0.00 96 1026.3
20260906063434 53 350 0.0 0.0 0.00 0.00 0.00 97 1026.3
20260906062932 52 347 0.0 0.0 0.00 0.00 0.00 97 1026.2
20260906062430 51 347 0.0 0.0 0.00 0.00 0.00 96 1026.3
20260906061429 50 340 0.0 0.0 0.00 0.00 0.00 96 1026.3
20260906060920 50 340 0.0 0.0 0.00 0.00 0.00 96 1026.3
20260906060417 49 340 0.0 0.0 0.00 0.00 0.00 96 1026.4
20260906055910 49 340 0.0 0.0 0.00 0.00 0.00 96 1026.3
20260906055405 49 339 0.0 0.0 0.00 0.00 0.00 96 1026.4
20260906054907 49 331 0.0 0.0 0.00 0.00 0.00 95 1026.5
20260906054405 49 331 0.0 0.0 0.00 0.00 0.00 95 1026.3
20260906053900 49 331 0.0 0.0 0.00 0.00 0.00 95 1026.4
20260906053350 49 331 0.0 0.0 0.00 0.00 0.00 95 1026.4
20260906052851 49 331 0.0 0.0 0.00 0.00 0.00 95 1026.4
20260906052344 49 331 0.0 0.0 0.00 0.00 0.00 95 1026.5
20260906051840 49 331 0.0 0.0 0.00 0.00 0.00 95 1026.6
20260906051337 49 331 0.0 0.0 0.00 0.00 0.00 95 1026.5
20260906050832 49 331 0.0 0.0 0.00 0.00 0.00 95 1026.4
20260906050332 49 331 0.0 0.0 0.00 0.00 0.00 95 1026.5
20260906045832 49 331 0.0 0.0 0.00 0.00 0.00 95 1026.4
20260906045326 49 331 0.0 0.0 0.00 0.00 0.00 95 1026.3
20260906044828 49 331 0.0 0.0 0.00 0.00 0.00 95 1026.4
20260906044326 49 331 0.0 0.0 0.00 0.00 0.00 95 1026.4
20260906043820 49 331 0.0 0.0 0.00 0.00 0.00 95 1026.2
20260906043319 49 331 0.0 0.0 0.00 0.00 0.00 95 1026.2
20260906042815 49 331 0.0 0.0 0.00 0.00 0.00 94 1026.2
20260906042308 49 331 0.0 0.0 0.00 0.00 0.00 95 1026.2
20260906041805 49 331 0.0 0.0 0.00 0.00 0.00 95 1026.3
20260906041304 49 331 0.0 0.0 0.00 0.00 0.00 95 1026.2
20260906040807 49 331 0.0 0.0 0.00 0.00 0.00 95 1026.3
20260906040306 49 331 0.0 0.0 0.00 0.00 0.00 95 1026.5
20260906035250 49 331 0.0 0.0 0.00 0.00 0.00 95 1026.6
20260906034738 49 331 0.0 0.0 0.00 0.00 0.00 94 1026.6
20260906034232 49 331 0.0 0.0 0.00 0.00 0.00 94 1026.8
20260906033733 50 331 0.0 0.0 0.00 0.00 0.00 94 1026.8
20260906033230 50 331 0.0 0.0 0.00 0.00 0.00 94 1026.8
20260906032731 50 331 0.0 0.0 0.00 0.00 0.00 94 1026.9
20260906032232 50 331 0.0 0.0 0.00 0.00 0.00 94 1026.8
20260906031732 50 331 0.0 0.0 0.00 0.00 0.00 94 1027.0
20260906031226 50 331 0.0 0.0 0.00 0.00 0.00 94 1026.9
20260906030727 50 331 0.0 0.0 0.00 0.00 0.00 94 1026.9
20260906030219 50 331 0.0 0.0 0.00 0.00 0.00 94 1027.1
20260906025718 50 331 0.0 0.0 0.00 0.00 0.00 94 1027.1
20260906025210 50 331 0.0 0.0 0.00 0.00 0.00 94 1027.0
20260906024709 50 331 0.0 0.0 0.00 0.00 0.00 94 1027.1
20260906024208 50 331 0.0 0.0 0.00 0.00 0.00 94 1027.2
20260906023706 50 331 0.0 0.0 0.00 0.00 0.00 94 1027.2
20260906023204 51 331 0.0 0.0 0.00 0.00 0.00 94 1027.1
20260906022703 51 331 0.0 0.0 0.00 0.00 0.00 94 1027.1
20260906022205 51 331 0.0 0.0 0.00 0.00 0.00 94 1027.1
20260906021702 51 331 0.0 0.0 0.00 0.00 0.00 94 1027.0
20260906021204 51 331 0.0 0.0 0.00 0.00 0.00 94 1026.9
20260906020703 51 331 0.0 0.0 0.00 0.00 0.00 94 1027.2
20260906020205 51 331 0.0 0.0 0.00 0.00 0.00 94 1027.3
20260906015703 51 331 0.0 0.0 0.00 0.00 0.00 93 1027.2
20260906014704 51 324 0.0 0.0 0.00 0.00 0.00 93 1027.2
20260906014205 51 324 0.0 0.0 0.00 0.00 0.00 93 1027.4
20260906013702 51 324 0.0 0.0 0.00 0.00 0.00 93 1027.4
20260906013204 51 324 0.0 0.0 0.00 0.00 0.00 93 1027.5
20260906012202 51 324 0.0 0.0 0.00 0.00 0.00 93 1027.3
20260906011704 51 324 0.0 0.0 0.00 0.00 0.00 93 1027.3
20260906011203 51 324 0.0 0.0 0.00 0.00 0.00 93 1027.3
20260906010204 52 324 0.0 0.0 0.00 0.00 0.00 93 1027.2
20260906005703 52 324 0.0 0.0 0.00 0.00 0.00 92 1027.2
20260906005204 52 324 0.0 0.0 0.00 0.00 0.00 92 1027.3
20260906004641 52 324 0.0 0.0 0.00 0.00 0.00 93 1027.3
20260906003635 52 324 0.0 0.0 0.00 0.00 0.00 92 1027.0
20260906003135 52 324 0.0 0.0 0.00 0.00 0.00 92 1026.9
20260906002132 52 324 0.0 0.0 0.00 0.00 0.00 92 1027.0
20260906001132 53 324 0.0 0.0 0.00 0.00 0.00 92 1027.1
20260906000134 53 324 0.0 0.0 0.00 0.00 0.00 92 1027.2
20260905235132 53 324 0.0 0.0 0.00 0.00 0.00 92 1027.0
20260905234631 53 324 0.0 0.0 0.00 0.00 0.00 91 1027.1
20260905234120 53 324 0.0 0.0 0.00 0.00 0.00 91 1027.0
20260905233624 53 324 0.0 0.0 0.00 0.00 0.00 91 1027.0
20260905233119 53 324 0.0 0.0 0.00 0.00 0.00 91 1027.0
20260905231604 53 324 0.0 0.0 0.00 0.00 0.00 91 1026.9
20260905230604 54 324 0.0 2.0 0.00 0.00 0.00 90 1026.9
20260905230105 54 324 0.0 2.0 0.00 0.00 0.00 90 1027.0
20260905225602 54 324 0.0 2.0 0.00 0.00 0.00 90 1027.0
20260905225104 54 324 0.0 2.0 0.00 0.00 0.00 90 1026.9
20260905223604 55 324 0.0 2.0 0.00 0.00 0.00 89 1026.8
20260905223104 55 324 0.0 2.0 0.00 0.00 0.00 89 1026.8
20260905222603 55 324 0.0 2.0 0.00 0.00 0.00 89 1026.8
20260905222104 55 324 0.0 0.0 0.00 0.00 0.00 89 1026.8
20260905221603 55 324 0.0 0.0 0.00 0.00 0.00 89 1026.8
20260905221106 55 324 0.0 0.0 0.00 0.00 0.00 88 1026.8